sat.trackr.live / text

‹ back to catalog

IHOPSAT-TD

NORAD 44859 · 2019-089H

PAYLOAD ACTIVE UNKNOWN

§ Identity

Operator
Country
US
Launch date
2019-12-11
Launch site
SRILR
Launch vehicle
Mass (kg)
RCS (m²)

External: N2YO · Heavens-Above · Gunter

§ Orbital elements

Epoch: 2026-05-25T03:57:06.293088Z

Period
95.26 min
Inclination
36.9657°
Eccentricity
0.0004077
Mean motion
15.11677037 rev/d
Perigee alt
528.3 km
Apogee alt
533.9 km
Semi-major
6,909.2 km
B*
1.2324e-4
RAAN
177.1785°
Arg perigee
42.1589°
Mean anomaly
317.9470°
Rev number
35,450

§ Raw data

IHOPSAT-TD1 44859U 19089H   26145.16465617  .00002053  00000+0  12324-3 0  99952 44859  36.9657 177.1785 0004077  42.1589 317.9470 15.11677037354507

JSON: /api/v1/satellites/44859 · /tle

For live sub-satellite position, see the globe view (requires WebGL).

§ Visibility from observer

Set your observer location to see the next 7 days of passes ≥ 10°. The values pass through the URL so the page stays shareable.

No JS? Fill the form by hand. The geolocation button needs JavaScript.